Location: Sungai Bunut
(2.6333°N, 113.7333°E)
Time: 14:32:50
(UTC+00:00)

Altair - Pass Details

Date: 11 December 2023
Orbit: 1501 x 1682 km, 47.2° (Epoch: 24 February)

Event Time Altitude Azimuth Distance (km) Brightness Sun altitude
Rises 09:16:11 0° 293° (WNW) 4,624 10.7 13.2°
Reaches altitude 10° 09:19:51 10° 281° (W) 3,648 10.5 12.3°
Maximum altitude 09:27:01 26° 229° (SW) 2,653 10.3 10.7°
Drops below altitude 10° 09:34:20 10° 176° (S) 3,718 9.8 9.0°
Sets 09:38:11 0° 164° (SSE) 4,730 10.2 8.1°
